GW1451 Weather Reports


time (UTC)temp
C
wind
direction
speed
KPH
gust
KPH
rain 1hr
cm
rain 24hr
cm
rain mn
cm
humidity
%
barometer
mb
20260505041725 13 315 3.2 6.4 0.00 0.00 0.00 79 994.0
20260505041215 13 315 3.2 3.2 0.00 0.00 0.00 79 993.9
20260505040704 13 315 3.2 6.4 0.00 0.00 0.00 79 993.9
20260505040155 13 315 3.2 6.4 0.00 0.00 0.00 79 993.8
20260505035654 13 315 3.2 6.4 0.00 0.00 0.00 79 993.8
20260505035135 14 315 3.2 6.4 0.00 0.00 0.00 77 993.8
20260505034624 14 315 3.2 6.4 0.00 0.00 0.00 77 993.7
20260505034117 14 315 3.2 6.4 0.00 0.00 0.00 76 993.8
20260505033604 15 315 3.2 6.4 0.00 0.00 0.00 77 993.7
20260505033054 14 338 3.2 9.7 0.00 0.00 0.00 76 993.8
20260505032544 14 338 6.4 9.7 0.00 0.00 0.00 76 993.8
20260505032034 13 315 3.2 6.4 0.00 0.00 0.00 79 993.8
20260505031523 13 315 3.2 3.2 0.00 0.00 0.00 79 993.5
20260505031013 14 315 1.6 3.2 0.00 0.00 0.00 78 993.7
20260505030504 13 315 3.2 6.4 0.00 0.00 0.00 78 993.7
20260505025953 13 315 1.6 6.4 0.00 0.00 0.00 79 993.7
20260505025443 13 338 3.2 6.4 0.00 0.00 0.00 79 993.7
20260505024933 13 315 3.2 6.4 0.00 0.00 0.00 81 993.7
20260505024423 13 338 3.2 6.4 0.00 0.00 0.00 81 993.6
20260505023913 13 315 3.2 6.4 0.00 0.00 0.00 82 993.6
20260505023402 13 315 3.2 6.4 0.00 0.00 0.00 82 993.4
20260505022853 13 315 3.2 3.2 0.00 0.00 0.00 81 993.6
20260505021322 15 315 3.2 6.4 0.00 0.00 0.00 76 993.6
20260505020303 15 338 6.4 9.7 0.00 0.00 0.00 74 993.5
20260505015752 15 315 6.4 11.3 0.00 0.00 0.00 74 993.6
20260505014732 15 338 6.4 11.3 0.00 0.00 0.00 76 993.4
20260505013711 14 338 4.8 6.4 0.00 0.00 0.00 79 993.4
20260505013202 13 338 3.2 6.4 0.00 0.00 0.00 81 993.3
20260505012651 13 315 3.2 6.4 0.00 0.00 0.00 82 993.4
20260505011631 13 315 3.2 6.4 0.00 0.00 0.00 83 993.2
20260505011121 13 338 3.2 6.4 0.00 0.00 0.00 84 993.1
20260505010611 13 338 3.2 6.4 0.00 0.00 0.00 82 993.0
20260505005550 13 315 4.8 6.4 0.00 0.00 0.00 83 993.1
20260505005040 13 338 4.8 6.4 0.00 0.00 0.00 81 992.7
20260505004531 13 338 4.8 6.4 0.00 0.00 0.00 82 992.2
20260505004020 13 338 3.2 6.4 0.00 0.00 0.00 82 992.5
20260505002450 14 338 4.8 9.7 0.00 0.00 0.00 79 992.1
20260505001939 14 0 4.8 11.3 0.00 0.00 0.00 79 992.4
20260505001429 14 338 6.4 11.3 0.00 0.00 0.00 80 992.7
20260505000920 13 338 8.0 9.7 0.00 0.00 0.00 81 992.7
20260505000409 13 338 3.2 6.4 0.00 0.00 0.00 81 992.3
20260504234425 13 338 3.2 6.4 0.00 0.00 0.00 79 992.6
20260504233915 13 338 4.8 6.4 0.00 0.00 0.00 80 992.6
20260504233406 13 338 3.2 6.4 0.00 0.00 0.00 81 992.8
20260504232855 13 338 4.8 6.4 0.00 0.00 0.00 79 992.8
20260504232345 13 338 3.2 6.4 0.00 0.00 0.00 79 992.7
20260504231835 13 338 3.2 6.4 0.00 0.00 0.00 78 992.8
20260504231325 13 338 3.2 6.4 0.00 0.00 0.00 78 992.7
20260504230814 13 338 3.2 6.4 0.00 0.00 0.00 78 992.5
20260504230304 13 0 3.2 6.4 0.00 0.00 0.00 78 992.6
20260504225754 13 338 3.2 6.4 0.00 0.00 0.00 78 992.5
20260504225246 13 338 3.2 6.4 0.00 0.00 0.00 78 992.4
20260504223714 12 0 3.2 3.2 0.00 0.00 0.00 80 992.3
20260504223203 12 338 3.2 3.2 0.00 0.00 0.00 82 992.4
20260504222653 12 315 3.2 3.2 0.00 0.00 0.00 82 992.4
20260504222144 11 315 3.2 6.4 0.00 0.00 0.00 82 992.3
20260504221633 11 338 3.2 6.4 0.00 0.00 0.00 81 992.4
20260504220613 12 338 3.2 6.4 0.00 0.00 0.00 78 992.3
20260504220103 12 315 3.2 6.4 0.00 0.00 0.00 76 992.0
20260504215553 11 315 3.2 6.4 0.00 0.00 0.00 78 992.1
20260504215043 11 338 3.2 6.4 0.00 0.00 0.00 76 992.0
20260504214534 12 315 4.8 6.4 0.00 0.00 0.00 74 992.1
20260504214023 12 315 3.2 6.4 0.00 0.00 0.00 73 992.0
20260504213513 12 315 3.2 3.2 0.00 0.00 0.00 72 991.9
20260504213004 12 315 0.0 3.2 0.00 0.00 0.00 72 991.7
20260504212452 12 315 1.6 3.2 0.00 0.00 0.00 72 991.9
20260504211432 13 315 3.2 3.2 0.00 0.00 0.00 69 991.6
20260504210921 14 315 1.6 3.2 0.00 0.00 0.00 69 991.6
20260504210411 14 315 1.6 3.2 0.00 0.00 0.00 69 991.3
20260504205902 15 315 3.2 6.4 0.00 0.00 0.00 67 991.5
20260504205352 16 338 3.2 6.4 0.00 0.00 0.00 63 991.5
20260504204331 17 338 6.4 9.7 0.00 0.00 0.00 58 991.5
20260504203311 18 338 4.8 9.7 0.00 0.00 0.00 55 991.4
20260504202802 18 315 3.2 9.7 0.00 0.00 0.00 55 991.3
20260504202251 18 315 3.2 9.7 0.00 0.00 0.00 55 991.3
20260504201740 18 270 6.4 12.9 0.00 0.00 0.00 54 991.4
20260504201231 19 315 6.4 12.9 0.00 0.00 0.00 51 991.1
20260504200720 19 293 6.4 14.5 0.00 0.00 0.00 50 991.0
20260504200210 19 315 6.4 14.5 0.00 0.00 0.00 50 991.1
20260504195150 20 315 8.0 14.5 0.00 0.00 0.00 50 991.1
20260504194639 20 270 9.7 14.5 0.00 0.00 0.00 49 991.1
20260504194130 20 315 8.0 17.7 0.00 0.00 0.00 50 991.0
20260504193620 20 293 6.4 17.7 0.00 0.00 0.00 49 991.1
20260504193109 20 293 8.0 17.7 0.00 0.00 0.00 48 991.0
20260504192559 20 315 6.4 17.7 0.00 0.00 0.00 49 991.2
20260504192050 20 293 9.7 17.7 0.00 0.00 0.00 48 991.2
20260504190519 20 315 11.3 17.7 0.00 0.00 0.00 48 991.0
20260504190018 20 270 9.7 17.7 0.00 0.00 0.00 47 990.8
20260504185459 20 315 9.7 17.7 0.00 0.00 0.00 46 990.8
20260504184948 20 315 6.4 12.9 0.00 0.00 0.00 47 990.7
20260504183929 20 270 9.7 20.9 0.00 0.00 0.00 47 990.9
20260504183419 20 293 8.0 22.5 0.00 0.00 0.00 47 990.9
20260504182908 20 338 6.4 22.5 0.00 0.00 0.00 47 990.9
20260504181848 20 293 3.2 17.7 0.00 0.00 0.00 48 991.0
20260504181338 20 248 6.4 17.7 0.00 0.00 0.00 50 991.0
20260504180827 20 293 6.4 20.9 0.00 0.00 0.00 49 991.1
20260504180317 20 270 11.3 20.9 0.00 0.00 0.00 48 990.9
20260504175808 20 338 9.7 17.7 0.00 0.00 0.00 48 991.1
20260504175257 20 293 8.0 17.7 0.00 0.00 0.00 47 991.1
20260504174748 20 293 11.3 22.5 0.00 0.00 0.00 47 991.0
20260504173727 20 338 6.4 17.7 0.00 0.00 0.00 49 991.0
20260504173217 20 248 4.8 17.7 0.00 0.00 0.00 49 991.1
20260504172707 20 315 11.3 17.7 0.00 0.00 0.00 48 991.0
20260504172157 20 293 12.9 22.5 0.00 0.00 0.00 48 991.2
20260504171646 20 293 14.5 22.5 0.00 0.00 0.00 49 991.5
20260504171136 20 315 8.0 22.5 0.00 0.00 0.00 50 991.5
20260504170626 19 293 11.3 22.5 0.00 0.00 0.00 50 991.5
20260504170116 19 315 14.5 22.5 0.00 0.00 0.00 52 991.3
20260504150734 17 315 6.4 20.9 0.00 0.00 0.00 57 992.3
20260504150223 17 315 9.7 24.1 0.00 0.00 0.00 55 992.3
20260504141043 16 293 11.3 22.5 0.00 0.00 0.00 57 992.5
20260504140532 16 293 12.9 24.1 0.00 0.00 0.00 57 992.7
20260504130331 13 293 12.9 17.7 0.00 0.00 0.00 64 992.4
20260504120130 12 315 12.9 24.1 0.00 0.00 0.00 64 992.5
20260504110439 11 315 12.9 17.7 0.00 0.00 0.00 66 992.4
20260504100237 12 315 12.9 25.7 0.00 0.00 0.00 62 992.7
20260504080854 11 315 24.1 35.4 0.00 0.00 0.00 60 991.9
20260504080148 11 338 24.1 0.0 0.00 0.00 0.00 60 991.6
20260504060207 12 338 25.7 46.7 0.00 0.00 0.00 58 992.4
20260504050515 11 338 25.7 43.5 0.00 0.00 0.00 57 992.9
20260504050016 11 315 24.1 37.0 0.00 0.00 0.00 57 992.9
20260504045455 11 0 19.3 32.2 0.00 0.00 0.00 58 992.8